Location: Winter Haven
(28.0220°N, 81.7330°W)
Time: 04:47:56
(UTC-04:00)

Amateur Radio Satellites - All Passes

Search period start: 18 April 2015 04:17
Search period end: 19 April 2015 04:17
Location: Winter Haven, 28.0220°N, 81.7330°W

Satellite Date Start Highest point End Downlink Frequencies (MHz)
Time Altitude Azimuth
JAS-2 18 Apr 04:18:17 04:21:49 16° 89° (E) 04:25:29 435.910
BEESAT 3 18 Apr 04:26:11 04:29:20 23° 111° (ESE) 04:32:37 437.485
RS-15 18 Apr 04:26:38 04:35:12 22° 254° (WSW) 04:43:06 29.354- 29.394
PHONESAT 2.4 18 Apr 04:35:35 04:38:49 34° 217° (SW) 04:42:01 2401.200-2431.200
MOZHAYETS 4 18 Apr 04:38:11 04:41:25 20° 72° (ENE) 04:44:50
CUSAT 1 18 Apr 04:38:59 04:41:59 13° 71° (ENE) 04:45:50 437.405
STARS 18 Apr 04:53:36 04:56:41 18° 265° (W) 04:59:38 437.465
SRMSAT 18 Apr 04:55:08 04:57:54 14° 161° (SSE) 05:00:49 437.500
Gurwin Techsat 1B 18 Apr 04:59:48 05:03:48 21° 289° (WNW) 05:07:38 435.225
JUGNU 18 Apr 05:00:25 05:05:17 27° 168° (SSE) 05:10:10 437.505
AUBIESAT-1 18 Apr 05:28:18 05:29:16 11° 64° (ENE) 05:30:33 437.475
AO-7 18 Apr 05:36:48 05:45:09 85° 106° (ESE) 05:53:31 29.400- 29.500
GONETS M04 18 Apr 05:39:46 05:48:39 83° 84° (E) 05:57:29
BEESAT 2 18 Apr 05:53:45 05:57:27 32° 301° (WNW) 06:01:11 435.950
HORYU 2 18 Apr 05:54:25 05:57:54 22° 288° (WNW) 06:01:16 437.375
AIST 2 18 Apr 06:00:44 06:04:57 80° 116° (ESE) 06:09:14 435.215
JAS-2 18 Apr 06:01:09 06:07:31 53° 287° (WNW) 06:13:07 435.910
DANDE 18 Apr 06:01:16 06:08:08 53° 81° (E) 06:16:19 436.750
BEESAT 3 18 Apr 06:04:11 06:07:19 20° 304° (NW) 06:10:23 437.485
M-CUBED/EXP-1 PRIME 18 Apr 06:08:59 06:13:09 37° 70° (ENE) 06:17:35 437.505
MOZHAYETS 4 18 Apr 06:14:28 06:18:30 28° 264° (W) 06:22:28
CUSAT 1 18 Apr 06:18:01 06:25:21 88° 83° (E) 06:33:43 437.405
Cosmos 2499 18 Apr 06:38:09 06:44:30 28° 74° (ENE) 06:50:44 435.465 / 435.565
SRMSAT 18 Apr 06:41:42 06:46:38 28° 168° (SSE) 06:51:36 437.500
JUGNU 18 Apr 06:48:34 06:53:55 37° 178° (S) 06:59:16 437.505
PRISM 18 Apr 06:51:03 06:54:28 25° 73° (ENE) 06:57:57 437.425
AUBIESAT-1 18 Apr 06:59:03 07:03:32 62° 256° (WSW) 07:08:15 437.475
CUTE-I 18 Apr 07:06:00 07:10:42 33° 98° (E) 07:15:28 437.470
Cubesat XI-IV 18 Apr 07:12:48 07:17:44 39° 99° (E) 07:22:42 437.490
STRAND 1 18 Apr 07:21:15 07:26:04 45° 74° (ENE) 07:30:57 437.568
CUBESAT XI-V 18 Apr 07:26:06 07:30:46 72° 259° (WSW) 07:35:25 437.345
AO-7 18 Apr 07:32:16 07:37:09 16° 299° (WNW) 07:41:32 29.400- 29.500
GONETS M04 18 Apr 07:40:11 07:44:41 14° 276° (W) 07:48:24
M-CUBED/EXP-1 PRIME 18 Apr 07:45:15 07:48:10 16° 263° (W) 07:50:58 437.505
DANDE 18 Apr 07:45:27 07:51:19 25° 267° (W) 07:57:36 436.750
CUSAT 1 18 Apr 08:04:00 08:07:52 14° 270° (W) 08:11:12 437.405
PRISM 18 Apr 08:27:00 08:29:56 18° 265° (W) 08:32:42 437.425
SRMSAT 18 Apr 08:30:01 08:35:26 38° 178° (S) 08:40:53 437.500
Cosmos 2499 18 Apr 08:30:36 08:37:50 41° 271° (W) 08:44:30 435.465 / 435.565
BRITE-PL 18 Apr 08:34:28 08:37:19 16° 94° (E) 08:40:33 437.365/2234.400
JUGNU 18 Apr 08:37:23 08:42:35 33° 188° (S) 08:47:46 437.505
CUTE-I 18 Apr 08:46:31 08:50:37 22° 289° (WNW) 08:54:33 437.470
HO-68 18 Apr 08:47:23 08:50:55 15° 92° (E) 08:54:59 435.675
Cubesat XI-IV 18 Apr 08:53:53 08:57:35 19° 290° (WNW) 09:01:05 437.490
STRAND 1 18 Apr 09:02:34 09:05:31 15° 267° (W) 09:08:11 437.568
GOMX 1 18 Apr 09:04:45 09:08:33 22° 95° (E) 09:12:39 467.674
COMPASS 1 18 Apr 09:21:13 09:22:35 12° 92° (E) 09:24:13 437.405
CANX-2 18 Apr 09:25:34 09:29:05 25° 96° (E) 09:32:40 2200.000
SEEDS 18 Apr 09:31:45 09:34:58 21° 95° (E) 09:38:17 437.485
CUTE 1.7 + AOD 2 18 Apr 09:35:50 09:39:35 30° 97° (E) 09:43:23 437.475
PCSat 18 Apr 09:50:18 09:55:06 34° 109° (ESE) 10:00:00 145.827
AAUSAT CUBESAT 2 18 Apr 10:08:43 10:12:42 43° 99° (E) 10:16:41 437.432
BRITE-PL 18 Apr 10:11:14 10:15:56 43° 284° (WNW) 10:20:56 437.365/2234.400
Oscar 11 18 Apr 10:12:23 10:15:31 20° 95° (E) 10:18:46 145.826/435.025
ANTELSAT 18 Apr 10:15:59 10:16:57 11° 69° (ENE) 10:18:14 437.575/2403.000
SRMSAT 18 Apr 10:19:00 10:24:16 34° 188° (S) 10:29:34 437.500
DOVE 4 18 Apr 10:21:06 10:26:08 81° 282° (WNW) 10:31:23 437.250
JUGNU 18 Apr 10:27:01 10:31:10 20° 196° (SSW) 10:35:15 437.505
CINEMA 3 18 Apr 10:30:30 10:35:24 63° 100° (E) 10:40:23 145.822/145.860
HO-68 18 Apr 10:32:07 10:39:17 72° 286° (WNW) 10:46:23 435.675
UWE-3 18 Apr 10:34:30 10:38:23 26° 96° (E) 10:42:22 435.000/436.395/437.385
DELFI C3 18 Apr 10:38:44 10:42:17 30° 97° (E) 10:45:52 145.870
GOMX 1 18 Apr 10:42:11 10:46:39 32° 285° (WNW) 10:51:15 467.674
O/OREOS (USA 219) 18 Apr 10:51:25 10:55:51 60° 70° (ENE) 11:00:15 437.305
QB50P2 18 Apr 10:51:51 10:53:45 13° 71° (ENE) 10:55:54 145.880/145.840
COMPASS 1 18 Apr 10:54:34 10:58:28 37° 285° (WNW) 11:02:19 437.405
HUMSAT D 18 Apr 10:56:51 10:59:21 16° 93° (E) 11:02:03 437.325/437.525
CANX-2 18 Apr 11:01:49 11:04:53 19° 287° (WNW) 11:07:46 2200.000
FUNcube-1 18 Apr 11:06:13 11:10:40 49° 99° (E) 11:15:07 145.935
TIGRISAT 18 Apr 11:07:05 11:11:15 46° 75° (ENE) 11:15:33 435.000
VELOX 1 18 Apr 11:07:21 11:08:10 11° 92° (E) 11:09:19 145.980
SEEDS 18 Apr 11:07:25 11:10:41 21° 287° (WNW) 11:13:50 437.485
UNISAT 6 18 Apr 11:07:26 11:11:39 49° 75° (ENE) 11:16:00 437.425
CUTE 1.7 + AOD 2 18 Apr 11:12:40 11:15:18 16° 288° (WNW) 11:17:43 437.475
POPSAT HIP 1 18 Apr 11:13:44 11:17:06 25° 73° (ENE) 11:20:34 437.405
NANOSAT C BR1 18 Apr 11:14:23 11:17:47 25° 74° (ENE) 11:21:16 145.865
Cosmos 2491 18 Apr 11:14:35 11:22:58 48° 79° (E) 11:31:26 435.465 / 435.565
AISAT 18 Apr 11:19:56 11:22:46 17° 94° (E) 11:25:48 437.250
UKube-1 18 Apr 11:25:41 11:29:51 46° 100° (E) 11:34:00 .
CUBEBUG 2 18 Apr 11:26:19 11:31:00 57° 284° (WNW) 11:35:40 437.445
ZACube-1 18 Apr 11:28:00 11:32:38 87° 277° (W) 11:37:13 437.345
ESTCUBE 1 18 Apr 11:31:33 11:32:18 11° 92° (E) 11:33:24 437.505/2401.250
PCSat 18 Apr 11:34:16 11:38:35 23° 303° (WNW) 11:42:48 145.827
CUBEBUG 1 18 Apr 11:37:27 11:38:09 10° 92° (E) 11:39:12 437.445
POLYITAN 1 18 Apr 11:38:44 11:42:48 54° 76° (ENE) 11:46:56 437.675
AAUSAT CUBESAT 2 18 Apr 11:47:04 11:47:59 10° 289° (WNW) 11:48:38 437.432
Oscar 11 18 Apr 11:48:07 11:51:40 24° 287° (WNW) 11:55:06 145.826/435.025
ANTELSAT 18 Apr 11:49:07 11:53:21 48° 261° (W) 11:57:41 437.575/2403.000
DUCHIFAT 1 18 Apr 11:50:08 11:54:18 75° 78° (ENE) 11:58:29 145.980
50 SAT 18 Apr 11:59:56 12:03:57 61° 100° (E) 12:07:56 437.505
QB50P1 18 Apr 12:02:08 12:06:19 73° 259° (W) 12:10:31 145.935-145.965
DX 1 18 Apr 12:06:44 12:10:54 47° 285° (WNW) 12:15:05 434.975-435.025
SRMSAT 18 Apr 12:08:47 12:13:03 20° 196° (SSW) 12:17:15 437.500
CINEMA 3 18 Apr 12:10:57 12:12:12 11° 290° (WNW) 12:13:04 145.822/145.860
UWE-3 18 Apr 12:11:09 12:14:47 22° 287° (WNW) 12:18:17 435.000/436.395/437.385
YUBILEINY 18 Apr 12:14:01 12:22:43 69° 93° (E) 12:31:29 435.215
DELFI C3 18 Apr 12:15:03 12:17:12 14° 288° (WNW) 12:19:09 145.870
BUGSAT 1 18 Apr 12:22:47 12:26:47 57° 260° (W) 12:30:45 437.445
QB50P2 18 Apr 12:25:33 12:29:23 34° 262° (W) 12:33:14 145.880/145.840
HUMSAT D 18 Apr 12:31:21 12:35:11 30° 286° (WNW) 12:38:57 437.325/437.525
VELOX 1 18 Apr 12:40:46 12:45:00 45° 285° (WNW) 12:49:13 145.980
FUNcube-1 18 Apr 12:44:54 12:46:38 12° 290° (WNW) 12:48:04 145.935
TIGRISAT 18 Apr 12:47:49 12:48:21 10° 269° (W) 12:48:33 435.000
POPSAT HIP 1 18 Apr 12:50:01 12:52:59 18° 265° (W) 12:55:47 437.405
NANOSAT C BR1 18 Apr 12:50:43 12:53:38 18° 265° (W) 12:56:23 145.865
SO-50 18 Apr 12:51:58 12:54:36 16° 109° (ESE) 12:57:31 436.795
AISAT 18 Apr 12:55:33 12:59:25 29° 286° (WNW) 13:03:14 437.250
Oscar 19 18 Apr 12:59:43 13:01:05 11° 68° (ENE) 13:02:49 437.125/150
UKube-1 18 Apr 13:04:27 13:05:38 11° 290° (WNW) 13:06:32 .
ESTCUBE 1 18 Apr 13:05:09 13:09:28 46° 285° (WNW) 13:13:44 437.505/2401.250
AIST 1 18 Apr 13:07:39 13:11:04 24° 78° (ENE) 13:14:35
CUBEBUG 1 18 Apr 13:10:38 13:14:47 44° 284° (WNW) 13:18:54 437.445
Cosmos 2491 18 Apr 13:12:16 13:19:31 28° 272° (W) 13:26:26 435.465 / 435.565
SPROUT 18 Apr 13:27:26 13:31:43 64° 101° (E) 13:36:00 437.525
TISAT 1 18 Apr 13:28:38 13:32:45 49° 100° (E) 13:36:53 437.305
YUBILEINY 18 Apr 14:14:13 14:20:21 19° 290° (WNW) 14:25:56 435.215
Cosmos 2504 18 Apr 14:18:28 14:26:14 39° 89° (E) 14:34:20 435.465 / 435.565
RS-15 18 Apr 14:19:39 14:25:36 18° 105° (ESE) 14:32:28 29.354- 29.394
BEESAT 2 18 Apr 14:20:08 14:22:57 18° 55° (NE) 14:25:51 435.950
ITUPSAT 1 18 Apr 14:27:55 14:32:04 30° 97° (E) 14:36:16 437.325
BEESAT 3 18 Apr 14:28:49 14:32:18 27° 58° (ENE) 14:35:48 437.485
SO-50 18 Apr 14:30:35 14:34:51 37° 302° (WNW) 14:39:14 436.795
Gurwin Techsat 1B 18 Apr 14:33:48 14:38:12 28° 72° (ENE) 14:42:43 435.225
Oscar 19 18 Apr 14:34:56 14:39:59 62° 259° (WSW) 14:45:06 437.125/150
AIST 1 18 Apr 14:45:45 14:48:35 17° 270° (W) 14:51:15
ISS 18 Apr 14:50:33 14:53:46 63° 314° (NW) 14:57:01 145.825
ITAMSAT 1 18 Apr 14:51:23 14:56:24 52° 75° (ENE) 15:01:27 435.822/435.867
BEESAT 18 Apr 15:03:37 15:08:23 85° 104° (ESE) 15:13:09 436.000
SWISSCUBE 18 Apr 15:04:42 15:09:28 85° 283° (WNW) 15:14:12 437.505
KKS-1 18 Apr 15:34:52 15:38:42 28° 97° (E) 15:42:35 437.445
BEESAT 2 18 Apr 15:57:38 16:01:05 26° 248° (WSW) 16:04:25 435.950
JAS-2 18 Apr 16:03:15 16:09:58 36° 71° (ENE) 16:17:01 435.910
ITUPSAT 1 18 Apr 16:06:20 16:09:47 19° 289° (WNW) 16:13:03 437.325
AIST 2 18 Apr 16:07:27 16:11:39 79° 245° (WSW) 16:15:46 435.215
BEESAT 3 18 Apr 16:07:32 16:10:08 16° 250° (WSW) 16:12:33 437.485
Cosmos 2504 18 Apr 16:11:43 16:19:38 36° 284° (WNW) 16:27:32 435.465 / 435.565
Gurwin Techsat 1B 18 Apr 16:13:42 16:18:08 26° 264° (W) 16:22:27 435.225
RS-15 18 Apr 16:26:07 16:37:02 82° 296° (WNW) 16:48:05 29.354- 29.394
AO-7 18 Apr 16:27:50 16:35:58 64° 71° (ENE) 16:44:08 29.400- 29.500
ITAMSAT 1 18 Apr 16:33:49 16:36:15 13° 268° (W) 16:38:19 435.822/435.867
GONETS M04 18 Apr 16:39:22 16:44:13 17° 85° (E) 16:49:43
HORYU 2 18 Apr 16:44:48 16:49:09 54° 260° (W) 16:53:33 437.375
STARS 18 Apr 16:48:46 16:53:08 56° 284° (WNW) 16:57:29 437.465
KKS-1 18 Apr 17:11:59 17:15:10 19° 288° (WNW) 17:18:11 437.445
JAS-2 18 Apr 17:47:51 17:54:51 39° 264° (W) 18:02:00 435.910
MOZHAYETS 4 18 Apr 18:15:56 18:20:31 69° 283° (WNW) 18:25:02
CUTE-I 18 Apr 18:21:21 18:25:46 28° 72° (ENE) 18:30:18 437.470
AO-7 18 Apr 18:23:13 18:29:17 21° 265° (W) 18:34:53 29.400- 29.500
Cubesat XI-IV 18 Apr 18:28:11 18:32:53 33° 73° (ENE) 18:37:40 437.490
GONETS M04 18 Apr 18:31:41 18:40:22 71° 277° (W) 18:49:08
RS-15 18 Apr 18:44:14 18:51:29 18° 320° (NW) 18:58:13 29.354- 29.394
AUBIESAT-1 18 Apr 18:48:45 18:51:42 19° 98° (E) 18:54:37 437.475
VERMONT LUNAR 18 Apr 18:54:12 18:57:10 29° 143° (SE) 19:00:11 437.305
Cosmos 2499 18 Apr 19:04:35 19:11:43 30° 88° (E) 19:19:13 435.465 / 435.565
DANDE 18 Apr 19:09:53 19:12:29 84° 92° (E) 19:15:29 436.750
CUSAT 1 18 Apr 19:22:37 19:25:07 30° 283° (WNW) 19:28:01 437.405
CUBESAT XI-V 18 Apr 19:29:56 19:34:22 48° 99° (E) 19:38:49 437.345
M-CUBED/EXP-1 PRIME 18 Apr 19:32:29 19:36:50 90° 290° (WNW) 19:40:47 437.505
STRAND 1 18 Apr 19:39:12 19:43:26 27° 97° (E) 19:47:47 437.568
PHONESAT 2.4 18 Apr 19:41:53 19:44:49 24° 141° (SE) 19:47:49 2401.200-2431.200
CUTE-I 18 Apr 20:01:20 20:05:48 26° 264° (W) 20:10:08 437.470
Cubesat XI-IV 18 Apr 20:08:55 20:13:03 22° 265° (W) 20:17:00 437.490
PRISM 18 Apr 20:14:55 20:19:01 71° 283° (WNW) 20:23:04 437.425
AUBIESAT-1 18 Apr 20:23:04 20:26:30 23° 293° (WNW) 20:29:38 437.475
PCSat 18 Apr 20:27:43 20:33:06 67° 65° (ENE) 20:38:29 145.827
VERMONT LUNAR 18 Apr 20:31:35 20:34:41 33° 335° (NNW) 20:37:48 437.305
HO-68 18 Apr 20:52:58 20:59:35 43° 71° (ENE) 21:06:20 435.675
AAUSAT CUBESAT 2 18 Apr 20:54:51 20:56:35 13° 71° (ENE) 20:58:33 437.432
Cosmos 2499 18 Apr 20:56:13 21:04:36 47° 281° (W) 21:13:00 435.465 / 435.565
CUBESAT XI-V 18 Apr 21:09:50 21:11:28 11° 290° (WNW) 21:12:47 437.345
BRITE-PL 18 Apr 21:15:56 21:20:09 75° 259° (WSW) 21:24:17 437.365/2234.400
STRAND 1 18 Apr 21:18:25 21:22:33 25° 288° (WNW) 21:26:34 437.568
PHONESAT 2.4 18 Apr 21:19:35 21:23:00 41° 333° (NNW) 21:26:24 2401.200-2431.200
DOVE 4 18 Apr 21:20:48 21:24:41 42° 76° (ENE) 21:28:40 437.250
CINEMA 3 18 Apr 21:26:45 21:29:58 22° 73° (ENE) 21:33:21 145.822/145.860
COMPASS 1 18 Apr 21:38:28 21:42:36 57° 77° (ENE) 21:46:46 437.405
GOMX 1 18 Apr 21:43:54 21:47:58 54° 260° (W) 21:52:02 467.674
CANX-2 18 Apr 21:46:30 21:50:43 62° 259° (W) 21:54:59 2200.000
SEEDS 18 Apr 21:51:25 21:55:39 75° 258° (WSW) 21:59:56 437.485
FUNcube-1 18 Apr 21:56:51 21:59:18 16° 72° (ENE) 22:01:58 145.935
CUTE 1.7 + AOD 2 18 Apr 21:56:58 22:01:07 50° 261° (W) 22:05:18 437.475
VERMONT LUNAR 18 Apr 22:11:37 22:12:54 12° 350° (N) 22:14:09 437.305
PCSat 18 Apr 22:14:54 22:16:05 10° 255° (WSW) 22:16:49 145.827
UKube-1 18 Apr 22:15:09 22:17:48 17° 72° (ENE) 22:20:38 .
ZACube-1 18 Apr 22:17:42 22:21:20 29° 74° (ENE) 22:25:06 437.345
CUBEBUG 2 18 Apr 22:17:53 22:21:55 49° 76° (ENE) 22:26:06 437.445
AAUSAT CUBESAT 2 18 Apr 22:28:02 22:31:55 36° 262° (W) 22:35:49 437.432
YUBILEINY 18 Apr 22:34:25 22:40:49 23° 72° (ENE) 22:47:36 435.215
Oscar 11 18 Apr 22:34:58 22:39:18 76° 259° (W) 22:43:39 145.826/435.025
50 SAT 18 Apr 22:40:33 22:42:29 14° 72° (ENE) 22:44:36 437.505
HO-68 18 Apr 22:41:28 22:47:27 27° 264° (W) 22:53:14 435.675
DELFI C3 18 Apr 22:53:49 22:57:50 56° 260° (W) 23:01:51 145.870
DX 1 18 Apr 22:55:13 22:59:28 58° 76° (ENE) 23:03:45 434.975-435.025
ISS 18 Apr 22:59:29 23:02:41 57° 47° (NE) 23:05:51 145.825
PHONESAT 2.4 18 Apr 22:59:59 23:01:53 14° 349° (N) 23:03:45 2401.200-2431.200
UWE-3 18 Apr 23:00:36 23:04:44 56° 261° (W) 23:08:58 435.000/436.395/437.385
CINEMA 3 18 Apr 23:04:05 23:07:09 19° 266° (W) 23:10:09 145.822/145.860
TIGRISAT 18 Apr 23:06:38 23:09:50 19° 94° (E) 23:13:12 435.000
UNISAT 6 18 Apr 23:07:12 23:10:31 20° 94° (E) 23:13:59 437.425
SO-50 18 Apr 23:08:36 23:12:58 31° 57° (ENE) 23:17:20 436.795
HUMSAT D 18 Apr 23:15:42 23:19:50 74° 77° (ENE) 23:24:02 437.325/437.525
O/OREOS (USA 219) 18 Apr 23:19:00 23:21:50 17° 102° (ESE) 23:24:52 437.305
RS-15 18 Apr 23:26:52 23:31:40 14° 34° (NE) 23:37:23 29.354- 29.394
VELOX 1 18 Apr 23:31:15 23:35:36 65° 77° (ENE) 23:39:58 145.980
FUNcube-1 18 Apr 23:31:43 23:35:25 29° 263° (W) 23:39:09 145.935
POLYITAN 1 18 Apr 23:32:20 23:34:56 16° 94° (E) 23:37:45 437.675
DUCHIFAT 1 18 Apr 23:42:38 23:45:49 21° 96° (E) 23:49:07 145.980
AISAT 18 Apr 23:45:52 23:50:16 79° 258° (WSW) 23:54:41 437.250
ANTELSAT 18 Apr 23:47:49 23:52:29 62° 100° (E) 23:57:07 437.575/2403.000
UKube-1 18 Apr 23:49:58 23:53:45 29° 262° (W) 23:57:29 .
VERMONT LUNAR 18 Apr 23:50:32 23:51:27 11° 7° (N) 23:52:24 437.305
QB50P1 18 Apr 23:54:30 23:58:17 31° 98° (E) 00:02:06 145.935-145.965
ZACube-1 18 Apr 23:55:13 23:57:47 15° 267° (W) 00:00:12 437.345
ESTCUBE 1 18 Apr 23:57:32 00:02:02 67° 77° (ENE) 00:06:31 437.505/2401.250
CUBEBUG 1 18 Apr 23:59:38 00:03:54 61° 76° (ENE) 00:08:12 437.445
Cosmos 2491 19 Apr 00:06:29 00:15:04 69° 93° (E) 00:23:44 435.465 / 435.565
BUGSAT 1 19 Apr 00:11:59 00:15:42 33° 98° (E) 00:19:29 437.445
50 SAT 19 Apr 00:13:37 00:17:05 29° 263° (W) 00:20:33 437.505
TISAT 1 19 Apr 00:15:41 00:18:02 15° 72° (ENE) 00:20:35 437.305
SPROUT 19 Apr 00:15:49 00:18:53 20° 73° (ENE) 00:22:05 437.525
QB50P2 19 Apr 00:17:20 00:21:36 64° 101° (E) 00:25:51 145.880/145.840
YUBILEINY 19 Apr 00:29:39 00:38:10 57° 268° (W) 00:46:33 435.215
PHONESAT 2.4 19 Apr 00:39:52 00:41:11 12° 6° (N) 00:42:31 2401.200-2431.200
POPSAT HIP 1 19 Apr 00:40:37 00:44:52 64° 283° (WNW) 00:49:07 437.405
NANOSAT C BR1 19 Apr 00:41:01 00:45:16 63° 284° (WNW) 00:49:29 145.865
TIGRISAT 19 Apr 00:42:28 00:46:37 31° 286° (WNW) 00:50:40 435.000
UNISAT 6 19 Apr 00:43:13 00:47:19 29° 287° (WNW) 00:51:18 437.425
SO-50 19 Apr 00:49:33 00:53:21 22° 250° (WSW) 00:56:58 436.795
O/OREOS (USA 219) 19 Apr 00:56:58 01:01:03 31° 293° (WNW) 01:05:05 437.305
POLYITAN 1 19 Apr 01:07:10 01:10:54 29° 286° (WNW) 01:14:35 437.675
DUCHIFAT 1 19 Apr 01:18:12 01:21:34 22° 287° (WNW) 01:24:50 145.980
VERMONT LUNAR 19 Apr 01:26:49 01:29:44 27° 24° (NNE) 01:32:39 437.305
ITUPSAT 1 19 Apr 01:29:07 01:32:04 17° 71° (ENE) 01:35:14 437.325
AIST 1 19 Apr 01:30:16 01:33:25 20° 91° (E) 01:36:42
QB50P1 19 Apr 01:31:19 01:33:56 16° 288° (WNW) 01:36:22 145.935-145.965
RS-15 19 Apr 01:35:50 01:47:18 60° 59° (ENE) 01:59:17 29.354- 29.394
BUGSAT 1 19 Apr 01:48:50 01:50:57 13° 288° (WNW) 01:52:51 437.445
TISAT 1 19 Apr 01:49:57 01:53:38 29° 263° (W) 01:57:16 437.305
SPROUT 19 Apr 01:51:25 01:54:52 23° 264° (W) 01:58:12 437.525
BEESAT 19 Apr 02:03:17 02:07:47 43° 75° (ENE) 02:12:20 436.000
SWISSCUBE 19 Apr 02:04:22 02:08:58 49° 75° (ENE) 02:13:36 437.505
Cosmos 2491 19 Apr 02:06:49 02:12:45 19° 290° (WNW) 02:18:10 435.465 / 435.565
Cosmos 2504 19 Apr 02:12:50 02:20:48 61° 81° (E) 02:28:13 435.465 / 435.565
PHONESAT 2.4 19 Apr 02:17:12 02:20:15 26° 22° (NNE) 02:23:18 2401.200-2431.200
KKS-1 19 Apr 02:28:52 02:30:04 11° 70° (ENE) 02:31:35 437.445
Oscar 19 19 Apr 02:53:27 02:58:40 85° 99° (E) 03:03:53 437.125/150
Gurwin Techsat 1B 19 Apr 02:57:25 03:01:07 20° 94° (E) 03:05:01 435.225
JUGNU 19 Apr 02:58:33 03:01:44 15° 162° (SSE) 03:05:01 437.505
VERMONT LUNAR 19 Apr 03:04:12 03:07:18 36° 217° (SW) 03:10:23 437.305
ITUPSAT 1 19 Apr 03:05:18 03:09:44 36° 262° (W) 03:14:07 437.325
AIST 1 19 Apr 03:07:37 03:10:59 21° 282° (WNW) 03:14:14
ITAMSAT 1 19 Apr 03:11:33 03:16:10 33° 98° (E) 03:20:51 435.822/435.867
STARS 19 Apr 03:38:45 03:42:58 50° 75° (ENE) 03:47:13 437.465
BEESAT 19 Apr 03:43:24 03:45:52 13° 267° (W) 03:48:02 436.000
SWISSCUBE 19 Apr 03:45:17 03:47:08 12° 268° (W) 03:48:37 437.505
RS-15 19 Apr 03:49:19 03:59:21 32° 253° (WSW) 04:09:11 29.354- 29.394
PHONESAT 2.4 19 Apr 03:55:13 03:58:37 45° 216° (SW) 04:01:59 2401.200-2431.200
KKS-1 19 Apr 04:02:08 04:06:22 46° 260° (W) 04:10:38 437.445
BEESAT 2 19 Apr 04:07:53 04:10:34 18° 110° (ESE) 04:13:24 435.950
